Tracking 27112 objects as of 27-Mar-2023
HD Live streaming from Space Station
objects crossing your sky now

PSLV DEB

Track PSLV DEB now!
10-day predictions


NORAD ID: 27585
Int'l Code: 2001-049ND
Perigee: 602.6 km
Apogee: 688.3 km
Inclination: 98.3 °
Period: 97.5 minutes
Semi major axis: 7016 km
RCS: 0.0014 m2 (small)
Launch date: October 22, 2001
Source: India (IND)
Launch site: SRIHARIKOTA (SRI)

Note: This is SATELLITE DEBRIS
Your satellite tracking list
Your tracking list is empty




NASA's NSSDC Master Catalog

Two Line Element Set (TLE):
1 27585U 01049ND  23085.68795571  .00004304  00000-0  59771-3 0  9990
2 27585  98.2636  58.8051 0061069 125.4093 235.2841 14.77150277127440
Source of the keplerian elements: AFSPC